YON495 KPTK-KAGS

Flight info

Callsign YON495
Flight time 1h 32m
Altitude 38000
Route CLVIN3 STAZE DCT VXV DCT SOT DCT SUG DCT HRTWL DCT IRQ DCT CLUBB DCT CADIE DCT
Aircraft A319/M-SDE3FGHIRWY/LB1

Departure

Time 2026-05-04 22:54
Airport Oakland County International Airport (KPTK)

Arrival

Time 2026-05-05 00:26
Airport Augusta Regional At Bush Field (KAGS)
Time Latitude Longitude Altitude Speed Heading
2026-05-04 22:40 42.66302 -83.42658 982 ft 0 kts 356°
2026-05-04 22:49 42.66307 -83.42658 982 ft 2 kts 356°
2026-05-04 22:49 42.66325 -83.42659 990 ft 4 kts 360°
2026-05-04 22:49 42.66355 -83.42649 987 ft 5 kts 17°
2026-05-04 22:50 42.66392 -83.42626 985 ft 7 kts 44°
2026-05-04 22:50 42.66404 -83.42559 982 ft 8 kts 88°
2026-05-04 22:50 42.66406 -83.42469 982 ft 11 kts 87°
2026-05-04 22:50 42.66409 -83.42358 981 ft 13 kts 87°
2026-05-04 22:51 42.66414 -83.42227 985 ft 15 kts 87°
2026-05-04 22:51 42.66419 -83.42077 980 ft 17 kts 87°
2026-05-04 22:51 42.66424 -83.41912 981 ft 18 kts 87°
2026-05-04 22:51 42.66427 -83.41795 985 ft 19 kts 88°
2026-05-04 22:52 42.66433 -83.41549 982 ft 18 kts 88°
2026-05-04 22:52 42.66438 -83.41371 979 ft 19 kts 88°
2026-05-04 22:52 42.66441 -83.41246 984 ft 20 kts 88°
2026-05-04 22:52 42.66447 -83.41062 979 ft 14 kts 87°
2026-05-04 22:53 42.66500 -83.41023 984 ft 9 kts
2026-05-04 22:53 42.66533 -83.41083 979 ft 10 kts 270°
2026-05-04 22:53 42.66528 -83.41229 979 ft 39 kts 268°
2026-05-04 22:53 42.66498 -83.42029 983 ft 127 kts 266°
2026-05-04 22:54 42.66448 -83.43322 1598 ft 135 kts 266°
2026-05-04 22:54 42.66358 -83.44587 2345 ft 141 kts 247°
2026-05-04 22:54 42.65632 -83.45594 2821 ft 168 kts 208°
2026-05-04 22:54 42.64384 -83.45813 3165 ft 201 kts 184°
2026-05-04 22:55 42.62916 -83.45718 3646 ft 221 kts 183°
2026-05-04 22:55 42.61325 -83.45643 4337 ft 236 kts 184°
2026-05-04 22:55 42.59612 -83.45570 5028 ft 252 kts 184°
2026-05-04 22:55 42.57837 -83.45489 6012 ft 258 kts 184°
2026-05-04 22:56 42.56030 -83.45402 6956 ft 262 kts 184°
2026-05-04 22:56 42.54187 -83.45309 7912 ft 267 kts 184°
2026-05-04 22:56 42.52307 -83.45212 8854 ft 272 kts 184°
2026-05-04 22:56 42.50423 -83.45114 9775 ft 276 kts 184°
2026-05-04 22:57 42.48462 -83.45018 10389 ft 292 kts 184°
2026-05-04 22:57 42.46346 -83.44927 10734 ft 317 kts 184°
2026-05-04 22:57 42.44061 -83.44830 11010 ft 341 kts 184°
2026-05-04 22:57 42.41615 -83.44721 11317 ft 360 kts 184°
2026-05-04 22:58 42.39082 -83.44595 11947 ft 369 kts 184°
2026-05-04 22:58 42.36499 -83.44456 12680 ft 374 kts 184°
2026-05-04 22:58 42.33882 -83.44314 13434 ft 379 kts 184°
2026-05-04 22:58 42.31229 -83.44175 14080 ft 383 kts 184°
2026-05-04 22:59 42.28551 -83.44039 14745 ft 388 kts 184°
2026-05-04 22:59 42.25836 -83.43901 15407 ft 392 kts 184°
2026-05-04 22:59 42.23096 -83.43764 16071 ft 396 kts 184°
2026-05-04 22:59 42.20325 -83.43627 16702 ft 400 kts 184°
2026-05-04 23:00 42.17528 -83.43491 17345 ft 405 kts 184°
2026-05-04 23:00 42.14698 -83.43351 17974 ft 409 kts 183°
2026-05-04 23:00 42.11845 -83.43210 18506 ft 412 kts 183°
2026-05-04 23:00 42.08965 -83.43069 19037 ft 416 kts 183°
2026-05-04 23:01 42.06061 -83.42925 19572 ft 419 kts 183°
2026-05-04 23:01 42.03140 -83.42781 20082 ft 422 kts 183°
2026-05-04 23:01 42.00198 -83.42636 20575 ft 425 kts 183°
2026-05-04 23:01 41.97227 -83.42487 21062 ft 428 kts 183°
2026-05-04 23:02 41.94236 -83.42338 21538 ft 431 kts 183°
2026-05-04 23:02 41.91223 -83.42192 22009 ft 434 kts 183°
2026-05-04 23:02 41.88233 -83.42049 22460 ft 437 kts 182°
2026-05-04 23:02 41.85184 -83.41901 22916 ft 440 kts 182°
2026-05-04 23:03 41.82110 -83.41750 23335 ft 444 kts 182°
2026-05-04 23:03 41.79018 -83.41597 23701 ft 446 kts 182°
2026-05-04 23:03 41.75900 -83.41441 24054 ft 450 kts 182°
2026-05-04 23:03 41.72766 -83.41411 24406 ft 449 kts 187°
2026-05-04 23:04 41.69676 -83.41963 24767 ft 446 kts 196°
2026-05-04 23:04 41.66700 -83.43102 25132 ft 445 kts 203°
2026-05-04 23:04 41.63764 -83.44446 25482 ft 447 kts 203°
2026-05-04 23:04 41.60817 -83.45785 25818 ft 449 kts 202°
2026-05-04 23:05 41.57847 -83.47125 26131 ft 451 kts 203°
2026-05-04 23:05 41.54905 -83.48451 26439 ft 453 kts 203°
2026-05-04 23:05 41.51902 -83.49804 26745 ft 456 kts 203°
2026-05-04 23:05 41.48882 -83.51167 27098 ft 457 kts 202°
2026-05-04 23:06 41.45868 -83.52528 27586 ft 455 kts 203°
2026-05-04 23:06 41.42870 -83.53878 28050 ft 454 kts 202°
2026-05-04 23:06 41.39878 -83.55224 28553 ft 452 kts 202°
2026-05-04 23:06 41.36893 -83.56565 29010 ft 452 kts 202°
2026-05-04 23:07 41.33945 -83.57884 29387 ft 453 kts 202°
2026-05-04 23:07 41.30950 -83.59221 29808 ft 453 kts 202°
2026-05-04 23:07 41.27961 -83.60558 30204 ft 453 kts 202°
2026-05-04 23:07 41.24973 -83.61894 30623 ft 452 kts 202°
2026-05-04 23:08 41.21993 -83.63225 31047 ft 450 kts 202°
2026-05-04 23:08 41.19027 -83.64548 31478 ft 449 kts 202°
2026-05-04 23:08 41.16068 -83.65868 31915 ft 448 kts 202°
2026-05-04 23:08 41.13114 -83.67186 32315 ft 447 kts 202°
2026-05-04 23:09 41.10168 -83.68500 32740 ft 447 kts 202°
2026-05-04 23:09 41.07253 -83.69797 33178 ft 445 kts 202°
2026-05-04 23:09 41.04315 -83.71101 33618 ft 444 kts 202°
2026-05-04 23:09 41.01381 -83.72402 34013 ft 443 kts 203°
2026-05-04 23:10 40.98463 -83.73700 34396 ft 442 kts 203°
2026-05-04 23:10 40.95550 -83.74994 34742 ft 441 kts 202°
2026-05-04 23:10 40.92630 -83.76287 35058 ft 442 kts 202°
2026-05-04 23:10 40.89713 -83.77579 35389 ft 442 kts 202°
2026-05-04 23:11 40.86799 -83.78871 35733 ft 441 kts 203°
2026-05-04 23:11 40.83929 -83.80141 36083 ft 440 kts 203°
2026-05-04 23:11 40.81018 -83.81426 36440 ft 439 kts 203°
2026-05-04 23:11 40.78124 -83.82702 36782 ft 438 kts 203°
2026-05-04 23:12 40.75225 -83.83979 37136 ft 437 kts 203°
2026-05-04 23:12 40.72336 -83.85250 37464 ft 436 kts 203°
2026-05-04 23:12 40.69495 -83.86499 37708 ft 435 kts 203°
2026-05-04 23:12 40.66610 -83.87770 37748 ft 437 kts 204°
2026-05-04 23:13 40.60822 -83.90322 37745 ft 438 kts 203°
2026-05-04 23:13 40.55017 -83.92869 37746 ft 439 kts 203°
2026-05-04 23:14 40.49254 -83.95381 37779 ft 439 kts 203°
2026-05-04 23:14 40.43441 -83.97911 37783 ft 439 kts 203°
2026-05-04 23:15 40.37626 -84.00446 37784 ft 440 kts 203°
2026-05-04 23:15 40.31812 -84.02968 37767 ft 440 kts 203°
2026-05-04 23:16 40.25766 -84.04543 37769 ft 450 kts 188°
2026-05-04 23:16 40.19508 -84.05025 37763 ft 451 kts 188°
2026-05-04 23:17 40.13242 -84.05508 37762 ft 451 kts 188°
2026-05-04 23:17 40.07013 -84.05994 37769 ft 452 kts 188°
2026-05-04 23:18 40.00731 -84.06490 37782 ft 452 kts 188°
2026-05-04 23:18 39.94469 -84.06984 37781 ft 452 kts 188°
2026-05-04 23:19 39.88178 -84.07465 37786 ft 453 kts 187°
2026-05-04 23:19 39.81928 -84.07948 37786 ft 452 kts 188°
2026-05-04 23:20 39.75679 -84.08439 37795 ft 452 kts 188°
2026-05-04 23:20 39.69399 -84.08919 37806 ft 452 kts 187°
2026-05-04 23:21 39.63123 -84.09395 37795 ft 452 kts 188°
2026-05-04 23:21 39.56838 -84.09881 37812 ft 452 kts 188°
2026-05-04 23:22 39.50558 -84.10369 37816 ft 452 kts 188°
2026-05-04 23:22 39.44268 -84.10853 37819 ft 452 kts 188°
2026-05-04 23:23 39.38025 -84.11333 37807 ft 452 kts 188°
2026-05-04 23:23 39.31729 -84.11820 37823 ft 453 kts 188°
2026-05-04 23:24 39.25434 -84.12305 37833 ft 453 kts 188°
2026-05-04 23:24 39.19189 -84.12775 37817 ft 453 kts 188°
2026-05-04 23:25 39.12892 -84.13244 37831 ft 453 kts 188°
2026-05-04 23:25 39.06589 -84.13719 37839 ft 453 kts 188°
2026-05-04 23:26 39.00293 -84.14199 37837 ft 453 kts 188°
2026-05-04 23:26 38.93985 -84.14649 37823 ft 455 kts 185°
2026-05-04 23:27 38.87662 -84.14187 37838 ft 458 kts 180°
2026-05-04 23:27 38.81297 -84.13627 37840 ft 458 kts 180°
2026-05-04 23:28 38.74923 -84.13066 37847 ft 459 kts 181°
2026-05-04 23:28 38.68550 -84.12521 37845 ft 459 kts 181°
2026-05-04 23:29 38.62214 -84.11986 37856 ft 459 kts 181°
2026-05-04 23:29 38.55830 -84.11437 37864 ft 459 kts 181°
2026-05-04 23:30 38.49457 -84.10887 37849 ft 459 kts 181°
2026-05-04 23:30 38.43074 -84.10339 37852 ft 460 kts 181°
2026-05-04 23:31 38.36689 -84.09795 37860 ft 460 kts 181°
2026-05-04 23:31 38.30332 -84.09254 37878 ft 460 kts 181°
2026-05-04 23:32 38.23932 -84.08709 37892 ft 460 kts 181°
2026-05-04 23:32 38.17541 -84.08171 37905 ft 460 kts 181°
2026-05-04 23:33 38.11151 -84.07634 37915 ft 460 kts 181°
2026-05-04 23:33 38.04763 -84.07081 37916 ft 460 kts 181°
2026-05-04 23:34 37.98373 -84.06534 37900 ft 460 kts 181°
2026-05-04 23:34 37.92002 -84.06002 37875 ft 461 kts 181°
2026-05-04 23:35 37.85598 -84.05467 37889 ft 461 kts 181°
2026-05-04 23:35 37.79184 -84.04917 37881 ft 461 kts 181°
2026-05-04 23:36 37.72778 -84.04375 37897 ft 461 kts 181°
2026-05-04 23:36 37.66371 -84.03845 37904 ft 461 kts 181°
2026-05-04 23:37 37.59963 -84.03317 37910 ft 461 kts 181°
2026-05-04 23:37 37.53585 -84.02785 37891 ft 462 kts 181°
2026-05-04 23:38 37.47171 -84.02246 37888 ft 461 kts 181°
2026-05-04 23:38 37.40759 -84.01713 37890 ft 461 kts 181°
2026-05-04 23:39 37.34343 -84.01173 37892 ft 461 kts 181°
2026-05-04 23:39 37.27928 -84.00652 37875 ft 462 kts 182°
2026-05-04 23:40 37.21553 -84.00125 37910 ft 462 kts 181°
2026-05-04 23:40 37.15129 -83.99593 37922 ft 463 kts 182°
2026-05-04 23:41 37.08692 -83.99063 37929 ft 464 kts 181°
2026-05-04 23:41 37.03338 -83.98620 37919 ft 464 kts 182°
2026-05-04 23:42 36.96886 -83.98090 37923 ft 464 kts 182°
2026-05-04 23:42 36.90431 -83.97557 37926 ft 465 kts 182°
2026-05-04 23:43 36.84059 -83.95946 37944 ft 480 kts 158°
2026-05-04 23:43 36.81274 -83.93680 37918 ft 489 kts 141°
2026-05-04 23:43 36.78806 -83.90745 37915 ft 491 kts 139°
2026-05-04 23:44 36.73912 -83.84775 37922 ft 491 kts 139°
2026-05-04 23:44 36.69018 -83.78811 37924 ft 492 kts 139°
2026-05-04 23:45 36.64116 -83.72867 37929 ft 492 kts 139°
2026-05-04 23:45 36.59203 -83.66928 37936 ft 492 kts 139°
2026-05-04 23:46 36.54279 -83.60990 37929 ft 493 kts 139°
2026-05-04 23:46 36.49355 -83.55057 37935 ft 493 kts 139°
2026-05-04 23:47 36.44453 -83.49167 37939 ft 493 kts 140°
2026-05-04 23:47 36.39518 -83.43245 37952 ft 492 kts 139°
2026-05-04 23:48 36.37060 -83.40294 37687 ft 489 kts 140°
2026-05-04 23:48 36.34592 -83.37342 37427 ft 497 kts 140°
2026-05-04 23:48 36.32110 -83.34375 37155 ft 492 kts 140°
2026-05-04 23:48 36.29666 -83.31450 36863 ft 486 kts 140°
2026-05-04 23:49 36.27290 -83.28609 36602 ft 484 kts 140°
2026-05-04 23:49 36.24857 -83.25709 36340 ft 483 kts 140°
2026-05-04 23:49 36.22413 -83.22802 36069 ft 482 kts 140°
2026-05-04 23:49 36.19992 -83.19924 35829 ft 482 kts 140°
2026-05-04 23:50 36.17577 -83.17055 35573 ft 481 kts 140°
2026-05-04 23:50 36.15164 -83.14187 35299 ft 481 kts 140°
2026-05-04 23:50 36.12765 -83.11332 34917 ft 475 kts 140°
2026-05-04 23:50 36.10435 -83.08558 34568 ft 467 kts 140°
2026-05-04 23:51 36.08116 -83.05802 34300 ft 458 kts 140°
2026-05-04 23:51 36.05833 -83.03089 34037 ft 452 kts 141°
2026-05-04 23:51 36.03573 -83.00413 33729 ft 448 kts 141°
2026-05-04 23:51 36.01332 -82.97767 33430 ft 444 kts 141°
2026-05-04 23:52 35.99102 -82.95136 33132 ft 442 kts 141°
2026-05-04 23:52 35.96877 -82.92514 32834 ft 439 kts 141°
2026-05-04 23:52 35.94702 -82.89951 32544 ft 438 kts 141°
2026-05-04 23:52 35.92499 -82.87354 32255 ft 436 kts 140°
2026-05-04 23:53 35.90312 -82.84773 31969 ft 434 kts 140°
2026-05-04 23:53 35.88130 -82.82205 31684 ft 432 kts 140°
2026-05-04 23:53 35.85959 -82.79657 31403 ft 430 kts 140°
2026-05-04 23:53 35.83794 -82.77120 31127 ft 428 kts 140°
2026-05-04 23:54 35.81630 -82.74588 30852 ft 428 kts 140°
2026-05-04 23:54 35.79509 -82.72103 30582 ft 426 kts 140°
2026-05-04 23:54 35.77365 -82.69592 30329 ft 424 kts 140°
2026-05-04 23:54 35.75228 -82.67093 30066 ft 422 kts 140°
2026-05-04 23:55 35.73103 -82.64609 29764 ft 421 kts 140°
2026-05-04 23:55 35.70985 -82.62133 29467 ft 419 kts 140°
2026-05-04 23:55 35.66778 -82.57226 28862 ft 414 kts 140°
2026-05-04 23:56 35.64694 -82.54794 28566 ft 412 kts 140°
2026-05-04 23:56 35.62618 -82.52368 28275 ft 410 kts 140°
2026-05-04 23:56 35.60554 -82.49957 27982 ft 408 kts 140°
2026-05-04 23:56 35.58499 -82.47563 27658 ft 406 kts 140°
2026-05-04 23:57 35.56448 -82.45181 27370 ft 404 kts 140°
2026-05-04 23:57 35.54410 -82.42818 27082 ft 402 kts 140°
2026-05-04 23:57 35.52409 -82.40496 26809 ft 400 kts 140°
2026-05-04 23:57 35.50386 -82.38151 26520 ft 399 kts 140°
2026-05-04 23:58 35.48366 -82.35810 26248 ft 398 kts 140°
2026-05-04 23:58 35.46350 -82.33473 25975 ft 397 kts 140°
2026-05-04 23:58 35.44343 -82.31147 25705 ft 395 kts 140°
2026-05-04 23:58 35.42300 -82.28905 25435 ft 390 kts 148°
2026-05-04 23:59 35.39997 -82.27329 25175 ft 380 kts 164°
2026-05-04 23:59 35.37456 -82.26548 24888 ft 377 kts 179°
2026-05-04 23:59 35.34834 -82.26284 24605 ft 379 kts 180°
2026-05-04 23:59 35.32198 -82.26028 24322 ft 379 kts 180°
2026-05-05 00:00 35.29572 -82.25766 24043 ft 378 kts 180°
2026-05-05 00:00 35.28688 -82.25676 23949 ft 378 kts 180°
2026-05-05 00:00 35.24331 -82.25230 23443 ft 375 kts 180°
2026-05-05 00:00 35.21732 -82.24967 23112 ft 372 kts 180°
2026-05-05 00:01 35.19154 -82.24709 22791 ft 370 kts 180°
2026-05-05 00:01 35.16621 -82.24454 22472 ft 368 kts 180°
2026-05-05 00:01 35.14070 -82.24199 22169 ft 367 kts 180°
2026-05-05 00:01 35.11525 -82.23946 21862 ft 365 kts 180°
2026-05-05 00:02 35.08998 -82.23695 21549 ft 364 kts 180°
2026-05-05 00:02 35.06480 -82.23446 21246 ft 362 kts 180°
2026-05-05 00:02 35.03973 -82.23197 20946 ft 361 kts 179°
2026-05-05 00:02 35.01479 -82.22949 20643 ft 359 kts 179°
2026-05-05 00:03 34.98992 -82.22701 20339 ft 358 kts 179°
2026-05-05 00:03 34.96547 -82.22457 20048 ft 356 kts 179°
2026-05-05 00:03 34.94075 -82.22210 19758 ft 354 kts 179°
2026-05-05 00:03 34.91624 -82.21970 19465 ft 353 kts 179°
2026-05-05 00:04 34.89180 -82.21733 19180 ft 351 kts 179°
2026-05-05 00:04 34.86747 -82.21498 18898 ft 350 kts 179°
2026-05-05 00:04 34.84325 -82.21261 18612 ft 349 kts 179°
2026-05-05 00:04 34.81909 -82.21024 18333 ft 347 kts 179°
2026-05-05 00:05 34.79506 -82.20786 18015 ft 346 kts 179°
2026-05-05 00:05 34.77139 -82.20549 17699 ft 344 kts 179°
2026-05-05 00:05 34.74760 -82.20312 17386 ft 343 kts 179°
2026-05-05 00:05 34.72387 -82.20075 17062 ft 340 kts 179°
2026-05-05 00:06 34.70030 -82.19836 16756 ft 339 kts 178°
2026-05-05 00:06 34.67691 -82.19600 16444 ft 337 kts 178°
2026-05-05 00:06 34.65357 -82.19369 16146 ft 335 kts 178°
2026-05-05 00:06 34.63030 -82.19137 15848 ft 334 kts 178°
2026-05-05 00:07 34.60719 -82.18908 15544 ft 332 kts 178°
2026-05-05 00:07 34.58445 -82.18685 15247 ft 331 kts 178°
2026-05-05 00:07 34.56152 -82.18461 14960 ft 330 kts 178°
2026-05-05 00:07 34.53865 -82.18238 14674 ft 328 kts 178°
2026-05-05 00:08 34.51590 -82.18015 14386 ft 327 kts 178°
2026-05-05 00:08 34.49322 -82.17792 14102 ft 325 kts 178°
2026-05-05 00:08 34.47065 -82.17571 13813 ft 324 kts 178°
2026-05-05 00:08 34.44824 -82.17348 13510 ft 323 kts 178°
2026-05-05 00:09 34.42621 -82.17130 13198 ft 321 kts 178°
2026-05-05 00:09 34.40401 -82.16909 12891 ft 319 kts 178°
2026-05-05 00:09 34.38196 -82.16692 12589 ft 316 kts 178°
2026-05-05 00:09 34.36007 -82.16480 12281 ft 314 kts 178°
2026-05-05 00:10 34.33829 -82.16268 11981 ft 312 kts 178°
2026-05-05 00:10 34.31669 -82.16058 11681 ft 310 kts 178°
2026-05-05 00:10 34.29530 -82.15852 11388 ft 308 kts 178°
2026-05-05 00:10 34.27403 -82.15646 11092 ft 306 kts 177°
2026-05-05 00:11 34.25319 -82.15446 10808 ft 303 kts 179°
2026-05-05 00:11 34.23219 -82.15453 10521 ft 300 kts 183°
2026-05-05 00:11 34.21135 -82.15490 10224 ft 299 kts 182°
2026-05-05 00:11 34.19062 -82.15522 9939 ft 297 kts 182°
2026-05-05 00:12 34.16998 -82.15552 9630 ft 295 kts 182°
2026-05-05 00:12 34.14950 -82.15580 9318 ft 294 kts 182°
2026-05-05 00:12 34.12909 -82.15609 9008 ft 292 kts 182°
2026-05-05 00:12 34.10878 -82.15640 8700 ft 291 kts 182°
2026-05-05 00:13 34.08858 -82.15670 8389 ft 289 kts 182°
2026-05-05 00:13 34.06874 -82.15699 8096 ft 288 kts 182°
2026-05-05 00:13 34.04878 -82.15726 7798 ft 286 kts 182°
2026-05-05 00:13 34.02889 -82.15752 7500 ft 283 kts 182°
2026-05-05 00:14 34.00945 -82.15778 7209 ft 276 kts 182°
2026-05-05 00:14 33.99039 -82.15806 6918 ft 271 kts 182°
2026-05-05 00:14 33.97172 -82.15834 6629 ft 266 kts 182°
2026-05-05 00:14 33.95326 -82.15861 6330 ft 264 kts 182°
2026-05-05 00:15 33.93494 -82.15888 6024 ft 262 kts 182°
2026-05-05 00:15 33.91704 -82.15916 5725 ft 259 kts 182°
2026-05-05 00:15 33.89905 -82.15941 5424 ft 257 kts 182°
2026-05-05 00:15 33.88120 -82.15964 5115 ft 255 kts 181°
2026-05-05 00:16 33.86351 -82.15986 4830 ft 253 kts 181°
2026-05-05 00:16 33.84597 -82.16009 4526 ft 251 kts 182°
2026-05-05 00:16 33.82855 -82.16036 4225 ft 250 kts 181°
2026-05-05 00:16 33.81121 -82.16062 3923 ft 248 kts 181°
2026-05-05 00:17 33.79393 -82.16087 3628 ft 247 kts 181°
2026-05-05 00:17 33.77682 -82.16110 3353 ft 245 kts 181°
2026-05-05 00:17 33.75977 -82.16135 3176 ft 245 kts 181°
2026-05-05 00:17 33.74293 -82.16161 3015 ft 244 kts 181°
2026-05-05 00:18 33.72594 -82.16039 2836 ft 245 kts 170°
2026-05-05 00:18 33.70987 -82.15365 2667 ft 245 kts 154°
2026-05-05 00:18 33.69634 -82.14206 2547 ft 234 kts 139°
2026-05-05 00:18 33.68626 -82.12739 2518 ft 221 kts 129°
2026-05-05 00:19 33.67752 -82.11296 2521 ft 206 kts 130°
2026-05-05 00:19 33.66924 -82.09943 2520 ft 197 kts 130°
2026-05-05 00:19 33.66114 -82.08622 2516 ft 195 kts 129°
2026-05-05 00:19 33.65320 -82.07330 2526 ft 195 kts 129°
2026-05-05 00:20 33.64515 -82.06024 2523 ft 194 kts 129°
2026-05-05 00:20 33.63713 -82.04718 2524 ft 194 kts 129°
2026-05-05 00:20 33.62793 -82.03553 2520 ft 191 kts 147°
2026-05-05 00:20 33.61598 -82.02909 2522 ft 187 kts 168°
2026-05-05 00:21 33.60319 -82.02592 2522 ft 187 kts 169°
2026-05-05 00:21 33.59041 -82.02273 2529 ft 188 kts 169°
2026-05-05 00:21 33.57759 -82.01953 2528 ft 188 kts 169°
2026-05-05 00:21 33.56478 -82.01632 2533 ft 188 kts 169°
2026-05-05 00:22 33.55199 -82.01313 2528 ft 187 kts 169°
2026-05-05 00:22 33.53918 -82.00993 2524 ft 189 kts 170°
2026-05-05 00:22 33.52651 -82.00677 2530 ft 188 kts 170°
2026-05-05 00:22 33.51366 -82.00356 2530 ft 188 kts 169°
2026-05-05 00:23 33.50085 -82.00036 2452 ft 188 kts 169°
2026-05-05 00:23 33.48801 -81.99716 2250 ft 188 kts 170°
2026-05-05 00:23 33.47531 -81.99399 2014 ft 183 kts 169°
2026-05-05 00:23 33.46307 -81.99093 1795 ft 175 kts 169°
2026-05-05 00:24 33.45141 -81.98803 1545 ft 166 kts 170°
2026-05-05 00:24 33.44047 -81.98530 1343 ft 155 kts 169°
2026-05-05 00:24 33.43057 -81.98283 1154 ft 138 kts 169°
2026-05-05 00:24 33.42163 -81.98061 959 ft 128 kts 169°
2026-05-05 00:25 33.41301 -81.97846 798 ft 125 kts 168°
2026-05-05 00:25 33.40450 -81.97629 641 ft 125 kts 168°
2026-05-05 00:25 33.39605 -81.97402 509 ft 124 kts 168°
2026-05-05 00:25 33.38758 -81.97198 320 ft 124 kts 170°
2026-05-05 00:26 33.37911 -81.96989 161 ft 119 kts 168°
2026-05-05 00:26 33.37234 -81.96820 147 ft 65 kts 169°
2026-05-05 00:26 33.36903 -81.96746 144 ft 35 kts 169°
2026-05-05 00:26 33.36753 -81.96732 145 ft 11 kts 207°
2026-05-05 00:27 33.36719 -81.96826 141 ft 16 kts 261°
2026-05-05 00:27 33.36728 -81.96939 140 ft 12 kts 327°
2026-05-05 00:27 33.36807 -81.96967 142 ft 12 kts 339°
2026-05-05 00:27 33.36826 -81.97057 143 ft 12 kts 265°
2026-05-05 00:28 33.36801 -81.97083 143 ft 4 kts 148°
2026-05-05 00:28 33.36804 -81.97058 143 ft 0 kts 72°